Wind_Speed
15 17 19 20 20 20 20 21 21 20 21 21 21 21 21 21 21 21 22 22 23 24 25 25 26 27 27 26 26 25 24 24 24 23 22 22 22 22 22 22 23 24 25 25 24 22 22 21 21 22 22 23 24 24 24 24 24 24 24 24 24 24 23 23 23 22 22 21 21 21 21 22 23 24 24 25 25 25 25 24 25 25 26 26 25 24
15 16 17 17 17 18 19 19 19 18 19 20 20 20 21 21 22 22 22 23 23 24 24 25 26 27 27 27 26 25 25 24 23 21 20 20 19 19 20 20 20 21 22 22 22 21 21 20 21 21 22 22 23 24 24 24 24 24 23 24 24 24 25 25 25 24 23 23 23 22 22 22 22 23 23 24 24 24 24 24 25 25 26 26 25 24
15 15 15 15 16 17 18 18 18 17 17 18 18 19 20 21 22 22 22 23 23 23 24 24 25 26 26 26 26 26 25 23 21 19 18 18 17 18 18 17 17 18 18 18 18 18 18 19 19 20 20 21 22 22 23 23 23 22 22 23 23 24 25 25 25 25 24 24 23 22 22 21 21 21 22 22 23 23 24 24 24 25 25 25 25 24
14 14 14 14 14 15 16 16 16 16 16 16 17 17 18 18 19 20 20 21 21 22 22 23 23 23 24 24 25 24 23 22 20 19 18 17 17 18 19 18 18 17 17 17 17 17 18 18 18 19 19 20 20 21 21 22 22 21 21 22 22 23 24 24 24 23 22 21 21 20 19 19 19 20 20 21 22 22 23 23 23 24 24 23 23 24
13 13 14 14 14 14 14 15 16 16 17 16 15 15 15 15 16 16 17 18 18 19 19 19 19 19 19 19 20 19 18 18 18 18 18 18 19 21 22 22 22 21 21 20 19 19 19 19 19 19 19 19 20 20 21 21 21 21 21 21 21 22 22 22 22 21 20 19 19 19 18 19 19 19 20 21 21 22 22 22 22 22 22 22 23 23
13 13 14 14 15 15 15 15 16 17 17 17 16 16 16 16 16 16 16 16 16 17 17 17 17 16 16 16 16 15 15 15 15 16 18 19 21 22 23 24 25 25 25 22 21 20 20 20 19 19 19 19 20 21 21 21 21 21 21 21 20 20 21 21 21 21 20 19 19 19 19 20 20 20 20 21 21 21 21 21 21 21 21 22 22 22
15 14 15 15 15 15 15 15 16 16 17 17 18 18 18 18 19 19 19 19 19 19 19 18 18 17 17 16 16 16 16 16 17 18 18 19 20 20 21 21 23 25 24 23 21 21 20 20 19 19 20 21 21 22 22 22 22 22 21 21 20 20 20 20 20 20 20 20 20 21 21 21 22 21 21 21 21 21 21 20 20 21 21 21 22 22
15 15 14 14 14 15 15 15 15 15 16 17 18 19 19 20 20 20 20 20 20 20 19 19 19 19 19 19 19 19 20 20 21 21 21 21 22 22 22 22 23 23 23 23 22 22 20 20 20 20 21 22 22 22 22 23 23 23 22 21 21 21 20 20 20 20 20 21 21 21 21 22 22 22 21 21 20 20 20 20 20 21 21 21 21 22
14 14 14 13 13 14 15 15 14 14 15 16 17 18 19 20 20 20 20 20 19 19 19 20 21 22 23 23 23 23 23 24 25 25 25 25 26 26 26 26 26 26 26 25 24 22 21 21 21 22 22 22 22 22 22 23 23 23 23 22 22 21 21 21 21 21 21 21 21 21 21 21 21 21 20 20 20 20 21 21 21 21 22 22 22 23
14 14 15 14 13 13 14 15 15 15 15 16 17 17 18 18 19 19 19 19 18 18 19 20 22 23 25 25 25 26 26 27 28 28 27 28 28 28 28 28 28 28 27 25 24 22 21 22 22 22 22 22 22 22 22 23 23 23 23 23 23 23 22 22 22 22 21 21 21 21 21 21 21 21 21 21 21 21 21 22 23 23 23 24 25 25
14 15 15 15 14 14 14 14 15 15 16 17 17 17 16 15 15 16 17 18 19 19 19 20 20 21 22 24 25 25 25 26 27 27 27 27 27 26 26 26 26 25 24 23 22 22 22 22 22 22 22 22 22 22 22 23 23 23 23 23 23 23 23 23 23 23 23 22 22 22 22 22 22 22 22 22 22 22 23 23 24 24 25 26 26 27
14 15 14 14 14 14 14 15 15 15 15 16 16 15 14 13 13 14 16 18 19 20 20 20 20 20 20 22 23 23 23 24 24 25 25 24 23 23 22 22 22 21 21 21 21 22 22 22 22 22 22 23 23 23 23 23 23 23 24 24 24 24 24 24 24 24 24 24 24 24 24 24 24 24 24 24 25 25 25 25 26 26 27 27 28 28
14 14 14 14 14 14 14 15 15 15 15 14 13 13 14 15 15 16 17 18 19 19 20 20 20 20 20 20 21 21 21 21 22 22 21 21 21 20 20 20 20 20 20 21 22 22 23 23 23 24 24 24 25 25 25 25 25 25 25 25 25 25 26 26 26 26 26 26 26 26 26 26 27 27 27 27 27 28 28 28 28 28 29 29 29 29
13 13 13 13 14 14 14 14 14 14 14 13 14 15 16 17 18 18 18 19 19 19 20 20 21 21 20 20 19 19 19 19 20 20 20 20 19 19 19 20 21 22 22 24 25 25 25 25 26 26 27 27 27 28 28 28 28 28 28 28 28 27 27 27 27 28 28 28 28 28 28 29 29 29 29 29 29 29 29 29 30 30 30 30 30 30
13 13 12 13 13 14 14 14 14 14 14 15 16 17 18 18 18 17 17 18 19 19 20 20 21 21 20 18 17 16 15 17 18 19 20 20 20 19 20 22 23 24 25 26 28 28 28 28 28 29 29 30 30 30 30 30 30 30 29 29 28 27 27 27 27 28 28 28 29 29 29 29 29 29 29 29 28 28 29 29 29 29 29 29 29 29
13 13 13 13 14 15 15 15 15 15 16 17 17 18 18 18 17 17 17 18 18 19 18 18 18 18 18 16 14 13 13 15 17 18 19 21 21 20 20 22 24 26 27 28 29 29 29 29 29 29 30 30 31 31 30 30 30 29 28 27 26 26 25 25 26 26 26 26 26 26 27 27 27 27 27 27 27 27 27 27 27 27 27 28 28 28
14 14 13 14 14 15 16 16 16 16 17 18 18 18 17 17 17 17 17 17 17 17 16 15 11 8 11 15 15 12 12 14 16 17 19 20 20 19 19 20 23 24 25 26 27 28 28 28 28 29 30 30 30 30 30 29 28 27 26 25 25 24 24 24 23 23 23 23 23 23 23 24 24 25 25 25 25 25 25 25 25 25 25 26 26 26
14 14 14 14 14 15 16 16 16 17 17 18 18 18 17 17 17 17 17 17 16 16 16 15 12 8 7 12 14 13 12 15 17 18 19 20 20 18 18 19 21 23 24 25 25 26 27 28 29 30 30 31 31 30 29 29 28 26 25 25 24 23 23 22 21 21 21 21 21 21 22 22 23 23 23 24 24 24 24 24 24 24 24 25 25 25
14 14 14 14 15 16 17 16 16 17 17 17 17 17 17 17 17 17 17 17 17 17 16 15 14 14 13 15 17 17 16 17 19 19 19 20 20 19 18 18 20 22 23 24 24 25 27 29 30 31 31 31 31 30 29 28 27 26 25 24 23 22 22 21 21 21 21 21 21 22 22 22 22 23 23 23 24 24 24 24 24 25 25 25 25 25
15 15 16 16 17 18 17 17 17 17 17 18 19 19 19 19 19 19 19 19 19 18 17 16 16 16 17 19 20 20 17 18 18 18 18 20 21 20 18 18 20 22 23 24 25 26 27 29 30 31 31 31 30 29 29 28 27 26 24 23 23 22 22 22 22 22 22 22 22 22 23 23 23 23 23 23 23 24 24 24 25 25 25 25 25 25
17 17 18 18 18 17 17 17 18 19 20 21 21 20 20 20 20 20 20 20 20 19 18 17 18 18 19 20 21 21 19 19 19 19 18 19 20 19 17 18 19 22 23 24 24 25 27 29 30 31 31 31 30 29 29 28 27 26 24 24 23 23 22 22 23 23 23 23 23 23 23 23 23 23 23 23 24 24 24 24 24 25 25 25 25 25
18 19 20 20 20 19 20 21 22 23 23 23 22 21 20 20 20 20 20 20 20 20 20 20 21 22 22 23 24 24 22 21 20 19 17 16 17 19 17 18 19 21 22 23 24 25 27 28 29 30 31 31 30 30 29 28 27 26 25 24 23 23 23 23 24 24 24 24 24 24 24 24 24 24 24 24 24 24 24 24 24 25 25 25 25 25
20 20 21 22 21 21 22 23 24 24 24 24 24 23 22 21 21 21 21 21 21 22 22 24 25 26 25 25 25 24 22 21 20 18 15 11 14 18 18 19 20 22 23 23 24 26 27 28 29 30 31 31 31 31 30 29 28 26 25 25 24 24 24 24 25 25 25 25 25 25 25 24 24 24 24 24 24 24 24 24 24 24 25 25 25 26
20 21 21 20 20 20 21 22 23 23 23 24 24 24 24 23 24 24 24 23 23 24 25 25 25 25 24 23 22 21 19 17 16 15 14 13 16 20 20 20 21 22 24 24 24 25 27 28 29 30 31 32 32 31 30 29 28 27 26 25 24 24 25 25 25 26 26 26 25 25 25 24 24 24 23 23 23 23 24 24 24 25 25 25 25 25
20 20 20 20 21 21 22 23 23 23 23 22 22 22 23 23 23 23 23 22 22 22 22 21 20 19 18 15 14 14 13 11 11 13 14 14 17 19 20 19 19 21 23 23 24 25 27 28 29 30 31 32 32 31 30 29 28 27 26 25 25 25 25 26 26 26 26 26 26 25 25 24 24 23 23 23 23 23 24 24 24 24 24 24 23 23
20 20 21 22 22 23 23 23 23 23 23 23 23 24 24 24 23 22 20 18 17 16 16 14 13 12 12 10 10 11 11 11 12 14 15 14 16 19 20 19 19 20 23 24 24 25 26 28 28 28 29 30 30 30 29 29 28 27 26 25 25 25 26 26 27 27 27 26 26 25 24 24 23 22 22 22 23 23 23 24 23 23 23 23 23 23
20 21 21 22 22 22 23 23 23 23 23 23 23 23 24 25 24 21 19 17 15 15 14 11 9 9 12 13 14 15 15 15 15 16 16 17 19 21 23 22 21 22 24 24 23 23 23 24 24 24 25 26 27 27 27 27 26 26 25 25 26 26 26 27 27 27 26 26 25 25 24 23 23 22 22 23 23 23 23 23 23 23 22 22 22 22
20 20 21 21 22 22 22 22 22 22 22 22 22 23 23 23 22 20 19 17 17 17 17 14 11 10 12 16 20 22 22 21 20 20 19 20 20 21 22 20 19 20 20 19 18 18 18 19 20 20 21 22 23 23 24 23 23 23 24 25 25 26 26 27 27 27 26 26 25 24 24 23 23 23 23 24 24 24 24 24 23 23 23 23 22 23
21 22 23 23 23 23 23 23 23 23 23 23 23 22 21 20 19 19 18 18 18 18 19 18 16 15 16 20 23 24 25 24 23 21 19 18 19 19 18 16 15 16 14 14 16 18 19 19 19 19 20 21 21 21 21 22 22 23 24 24 25 26 27 27 28 28 27 27 26 25 24 24 24 25 25 25 25 24 24 24 23 24 24 24 24 24
25 26 26 26 25 24 24 24 24 24 23 23 22 21 20 19 19 20 20 20 19 19 19 19 19 19 19 18 17 16 18 21 20 17 16 15 16 16 15 14 15 15 14 13 13 14 17 20 20 20 21 21 21 21 21 22 22 23 24 25 26 27 28 29 30 30 29 29 28 27 26 26 26 26 26 26 25 24 24 23 23 24 24 24 24 25
27 27 27 26 25 25 25 25 24 24 23 22 21 20 19 18 19 20 20 20 19 19 19 19 18 18 17 11 7 5 8 17 18 15 15 15 15 15 13 13 16 17 15 12 6 4 9 13 17 20 21 22 22 22 22 23 24 25 26 27 28 30 31 32 32 32 30 29 28 28 27 27 28 27 26 25 24 23 23 22 23 23 23 23 24 25
25 25 24 24 24 24 23 23 22 22 21 21 20 19 18 18 18 18 18 18 18 18 18 17 17 16 16 14 11 9 11 18 18 16 14 13 13 13 11 12 15 17 16 14 11 9 7 6 12 19 21 23 23 23 23 25 26 28 28 29 31 32 32 32 31 30 29 28 28 28 28 28 28 28 26 25 24 23 22 22 22 22 22 23 24 25
23 22 22 22 22 22 21 21 20 20 20 19 19 18 18 17 17 17 17 18 18 19 19 19 18 19 20 21 19 17 17 15 14 12 12 13 12 12 12 14 17 19 19 17 17 17 13 12 16 20 23 24 25 24 25 26 27 28 28 29 30 31 31 30 29 29 28 28 27 28 28 29 29 28 27 25 24 23 22 22 22 21 21 22 24 25
22 21 22 22 22 21 21 21 20 20 20 19 19 19 18 18 19 19 19 19 19 20 20 20 20 19 17 15 14 15 15 15 14 14 15 16 15 15 16 18 20 21 20 18 18 18 19 20 20 20 21 24 26 25 25 25 26 27 27 28 29 29 29 28 28 28 27 27 27 27 28 29 29 29 28 27 26 25 24 24 23 23 22 23 23 24
21 21 21 21 21 21 21 20 20 20 20 19 19 19 20 20 21 21 21 21 21 20 21 21 21 19 17 17 17 17 19 20 20 19 18 18 17 17 18 19 20 20 19 19 18 17 17 20 21 21 20 23 26 27 26 26 26 27 27 27 28 28 27 26 26 26 27 27 27 28 28 29 29 30 30 29 28 27 27 26 25 24 24 24 24 24
21 20 20 20 20 20 19 20 20 20 20 20 20 21 21 21 22 22 23 23 24 24 25 26 26 25 24 22 21 21 22 23 23 22 20 20 20 19 19 18 19 20 19 20 19 18 17 19 22 24 23 21 22 25 27 27 27 27 27 27 26 26 26 25 25 25 26 27 27 28 29 29 29 30 30 30 29 28 27 26 26 25 25 26 26 26
19 19 19 19 19 18 18 19 20 20 21 21 21 21 21 22 22 23 24 25 25 26 27 28 28 28 27 26 24 24 25 25 25 25 24 23 23 22 21 21 22 23 22 22 21 21 20 19 21 23 22 21 20 22 26 26 26 26 25 25 25 25 26 26 26 26 27 29 29 30 30 30 30 30 30 29 28 27 27 27 27 26 26 26 27 27
18 18 18 18 18 18 17 18 19 19 19 18 19 20 20 21 22 22 23 23 24 25 25 26 28 28 29 29 29 29 29 29 29 28 28 26 26 25 23 24 24 24 24 24 23 22 21 16 14 13 13 18 23 25 26 25 24 24 25 25 26 27 28 28 28 29 30 30 31 31 31 31 30 29 29 28 27 27 27 28 28 28 27 27 28 28
16 17 17 17 17 17 16 16 16 17 17 18 19 20 20 20 21 22 22 23 23 24 25 26 27 28 29 30 31 31 30 30 30 30 29 29 28 27 25 25 25 25 26 25 24 22 22 18 14 11 9 14 20 24 25 25 24 24 24 25 26 27 27 28 28 29 29 30 30 31 31 31 31 30 29 29 28 28 28 28 28 27 27 27 28 28
16 16 17 17 16 16 16 16 17 18 20 21 21 21 21 21 22 22 23 23 24 24 25 25 26 27 27 28 28 28 29 29 29 29 29 30 30 29 28 27 26 26 25 24 23 22 22 21 21 21 21 19 20 22 23 24 23 23 23 22 22 24 26 26 26 27 28 29 29 29 29 29 29 29 28 28 28 28 28 28 27 27 27 26 26 26
16 16 17 17 17 17 17 18 20 21 23 23 23 23 22 22 22 23 23 23 24 23 23 23 24 25 26 27 27 27 27 27 27 27 28 29 30 31 29 27 24 23 22 21 21 21 21 21 22 23 23 22 23 24 24 24 25 25 24 22 22 25 26 26 26 26 26 27 28 28 28 27 27 27 28 28 28 28 28 27 27 27 27 26 26 25
16 16 17 18 18 19 20 21 22 23 23 22 22 22 22 21 21 21 22 22 22 22 21 21 21 22 23 24 25 24 24 24 25 25 25 26 26 25 25 24 22 21 20 20 20 20 21 21 21 22 23 23 22 22 22 25 26 26 25 24 25 26 27 27 26 25 25 26 26 27 27 26 26 26 27 27 28 28 27 28 28 27 27 27 27 26
17 18 18 19 20 21 22 22 22 21 21 21 20 20 20 20 20 20 20 20 21 20 20 20 20 21 22 23 24 24 23 22 22 22 23 24 26 26 26 25 25 24 22 20 20 21 22 21 21 22 23 23 23 22 23 25 26 26 26 26 25 23 20 23 25 25 24 25 26 27 27 27 27 27 27 27 27 27 27 27 27 27 26 26 26 26
19 19 20 20 20 21 20 20 20 20 20 19 19 19 19 19 19 18 18 19 20 20 20 20 20 20 21 22 23 24 23 23 22 22 22 23 24 24 25 25 25 25 24 22 21 21 22 22 22 23 23 22 22 23 24 24 24 25 26 26 25 23 22 24 25 26 25 25 26 27 27 27 27 27 26 27 27 27 27 27 26 26 26 26 26 26
19 20 20 20 20 19 19 19 20 20 19 19 19 19 20 19 19 18 19 19 20 20 20 20 19 19 19 20 21 22 23 23 22 21 21 21 21 21 22 23 24 25 25 24 23 22 20 21 22 23 22 21 22 22 23 23 23 23 24 24 24 24 26 28 28 27 26 27 27 28 28 28 27 26 26 26 27 27 27 26 26 26 26 26 26 26
19 19 19 19 19 19 19 20 20 20 20 20 20 20 20 20 20 19 19 19 19 20 20 20 18 18 18 19 20 21 22 22 22 22 20 20 20 20 21 21 22 23 23 24 24 24 24 24 23 23 22 22 22 23 24 24 24 23 24 25 24 24 25 26 26 26 26 27 27 28 29 29 28 26 25 26 26 27 27 26 26 25 26 26 26 26
18 19 19 19 19 20 20 20 20 19 19 20 20 20 20 19 19 19 19 19 19 19 19 19 18 18 18 19 20 20 20 21 22 23 22 21 20 20 21 21 22 23 24 25 25 26 26 27 26 25 23 21 21 23 25 25 24 24 24 25 25 25 24 25 26 26 26 26 27 27 27 26 24 24 24 25 26 26 26 26 26 26 26 26 26 27
18 19 19 19 19 20 20 20 19 19 19 20 20 20 20 19 19 18 19 19 18 18 18 18 18 18 19 19 20 20 20 20 22 23 23 22 22 22 21 22 22 23 24 25 26 27 28 29 29 29 27 24 22 22 24 25 25 24 25 25 25 25 25 26 27 26 26 26 27 28 27 25 23 22 22 22 23 24 24 25 26 27 27 27 27 28
19 19 19 19 19 19 19 19 19 19 19 20 20 20 20 20 19 18 18 18 18 18 18 18 18 18 18 19 20 20 20 21 22 22 23 23 22 22 21 21 21 21 22 24 24 26 27 28 29 30 30 29 26 25 25 26 26 26 25 25 24 24 25 26 26 26 25 25 27 28 27 26 24 23 22 20 20 22 24 26 26 27 28 28 29 29
19 19 19 19 19 19 19 19 19 19 20 20 20 20 21 20 19 19 18 18 18 17 17 17 18 18 18 19 20 20 20 20 21 22 22 22 21 21 20 21 21 20 20 20 20 21 21 22 23 26 27 28 28 27 26 26 26 25 25 24 24 24 24 24 25 25 25 24 25 26 26 26 25 24 21 19 20 21 24 25 26 27 28 29 29 30
19 19 19 19 19 19 19 19 19 19 20 20 20 20 20 20 19 19 18 17 17 17 18 18 18 18 18 19 20 20 20 20 20 21 22 22 21 20 20 20 19 18 17 16 15 14 13 12 14 17 20 22 24 26 27 26 25 23 22 23 24 23 23 23 24 24 24 24 25 25 25 24 23 22 21 19 19 19 21 23 25 27 28 29 29 30
Wind_Direction
308 311 315 318 320 320 319 321 323 322 320 318 316 314 313 312 312 312 312 313 313 313 312 312 312 312 312 312 312 313 313 315 317 318 317 312 306 301 296 294 294 293 293 292 291 288 286 283 281 279 278 277 276 276 276 276 276 276 276 277 278 279 280 281 281 282 283 283 282 282 281 281 282 285 288 291 293 295 296 297 296 297 298 299 300 298
311 313 315 318 320 320 318 323 325 324 321 319 318 316 314 312 310 309 309 309 309 310 310 310 310 310 310 310 309 308 308 309 312 314 314 310 305 300 296 293 291 290 290 289 289 287 285 283 280 278 277 276 275 275 276 276 276 276 276 277 277 279 280 281 282 282 282 282 280 279 278 278 280 283 286 289 291 293 295 297 297 298 298 298 299 299
314 315 316 319 321 320 319 324 328 329 325 323 321 319 317 315 313 311 310 309 308 308 308 307 307 307 307 306 306 304 303 302 302 303 303 301 298 296 295 292 290 289 289 288 287 286 284 283 280 278 276 275 275 275 275 275 275 276 276 276 277 278 279 280 281 282 282 280 278 276 275 276 279 282 285 287 289 291 294 296 298 299 299 299 300 299
312 314 317 321 321 320 321 325 329 330 329 327 326 324 323 320 318 316 315 314 313 311 309 309 309 308 307 306 305 303 299 295 292 291 290 289 289 290 291 290 290 289 288 287 286 285 284 283 281 279 277 275 274 273 273 273 274 274 274 275 275 276 277 278 279 279 278 276 274 273 273 276 279 282 284 286 288 289 292 295 297 299 299 300 301 301
309 311 316 320 319 317 319 322 323 324 325 326 326 325 325 323 321 319 319 318 316 314 313 313 313 311 310 308 306 303 297 290 286 283 281 281 282 283 284 285 285 285 285 286 286 286 286 285 284 282 280 278 275 274 273 273 273 274 274 274 274 275 275 275 275 274 272 269 268 269 271 274 278 280 282 284 285 288 290 293 295 297 299 301 301 301
306 308 313 315 313 311 312 313 315 318 319 320 319 317 316 315 314 314 315 314 313 311 311 311 309 307 305 304 302 297 291 286 281 279 278 278 279 279 279 278 279 280 281 283 285 287 288 288 288 286 283 280 278 277 276 276 275 275 275 275 275 275 275 274 272 270 267 265 264 265 267 271 274 277 279 281 283 286 289 291 293 295 297 299 301 301
305 307 312 312 310 308 309 310 313 316 318 318 316 313 311 309 309 309 309 309 308 307 306 304 301 298 296 293 291 288 285 281 278 277 278 279 279 279 279 279 278 279 280 283 286 288 289 289 287 285 283 281 281 280 279 279 278 278 277 277 277 277 276 274 272 269 267 265 264 265 266 268 271 274 276 278 281 284 286 288 290 292 294 297 298 299
309 311 315 315 315 313 312 311 313 316 318 319 320 318 315 312 310 308 307 306 305 305 305 302 299 295 291 288 287 285 284 282 282 282 282 283 284 285 285 286 286 286 286 288 290 290 289 286 283 281 281 281 281 281 280 280 280 279 279 279 278 277 276 274 272 270 268 267 266 266 267 269 271 272 274 276 279 281 283 284 287 289 291 294 296 297
312 315 317 318 319 318 316 313 314 316 316 317 319 320 318 315 312 310 308 306 305 304 304 303 301 298 294 291 289 288 287 287 287 287 288 288 288 289 289 290 290 291 291 291 291 290 286 282 280 279 279 279 278 278 278 278 278 278 278 278 277 275 274 272 271 269 268 268 268 268 269 270 271 272 273 275 276 278 279 281 283 286 288 290 291 292
313 315 316 316 316 316 314 312 313 315 316 314 314 314 314 314 314 313 311 308 306 306 305 304 304 303 300 298 295 294 293 292 290 289 290 290 290 290 290 291 291 291 291 291 289 286 282 280 278 277 277 276 275 274 274 275 275 275 275 275 273 272 271 269 268 268 268 268 269 269 270 270 271 271 272 272 273 274 275 277 279 281 283 285 286 287
314 314 314 313 313 312 310 308 310 313 315 314 314 313 312 312 314 315 314 310 309 308 307 304 303 303 303 302 301 300 299 297 295 293 293 292 292 292 291 291 291 291 290 289 286 282 279 278 276 276 275 275 274 274 274 273 273 273 273 272 271 270 269 268 267 267 268 269 270 270 271 271 271 271 271 271 272 272 272 274 276 278 280 282 283 284
311 312 311 310 310 311 309 308 309 311 314 315 316 315 312 312 313 312 308 306 306 307 306 304 302 300 299 300 301 301 300 299 298 298 298 298 297 296 295 293 292 291 288 284 281 278 276 275 275 276 276 276 276 276 277 276 276 275 274 274 273 272 271 270 270 270 270 271 272 273 274 274 274 274 273 273 273 273 273 274 275 277 279 280 282 283
309 309 309 308 308 309 309 309 310 310 311 312 311 308 307 308 309 306 301 299 299 301 302 302 300 298 297 297 298 299 298 297 297 298 299 298 298 298 298 296 293 290 286 283 279 277 276 276 277 277 278 279 280 280 280 281 281 280 280 279 279 278 277 276 275 275 275 275 275 276 276 276 276 277 276 276 276 276 276 276 277 278 279 280 281 282
308 309 308 307 306 306 307 307 307 306 305 305 303 301 301 303 303 302 299 296 296 299 301 299 298 298 298 297 297 296 296 295 295 295 295 295 296 297 297 296 293 290 288 286 283 281 280 281 281 281 281 282 282 283 283 284 284 285 285 286 285 285 284 283 281 280 279 278 278 278 278 278 278 278 278 279 278 278 278 278 278 279 279 280 281 281
309 310 308 305 304 304 304 304 302 301 300 301 301 300 300 300 300 300 298 297 299 301 303 300 298 298 297 296 296 296 294 293 293 295 295 295 294 295 296 295 293 291 290 289 288 286 285 285 285 285 285 284 284 285 286 287 288 289 289 290 289 288 287 285 284 283 282 280 279 279 278 278 278 279 279 279 279 279 279 279 279 279 279 279 280 280
305 305 303 301 301 301 301 301 300 299 298 299 299 299 299 298 299 299 298 298 301 304 304 303 302 300 298 296 295 293 291 291 293 296 298 296 295 295 296 296 296 294 293 292 291 290 289 289 288 287 287 287 287 288 289 290 290 291 290 290 288 287 286 285 284 284 283 282 280 280 279 279 279 279 279 279 279 279 279 279 279 278 278 278 278 278
299 298 297 297 297 297 299 299 297 296 297 297 296 295 295 295 296 297 296 298 300 301 300 300 301 301 300 299 295 291 290 291 292 294 295 293 294 296 299 298 296 295 295 294 294 294 293 292 290 289 288 288 289 290 291 291 290 290 289 287 286 285 285 284 284 284 283 283 282 281 280 280 280 279 279 279 279 279 279 279 278 278 278 277 277 277
295 295 295 294 294 295 296 297 296 296 295 295 294 293 292 291 292 293 293 293 294 294 294 293 291 290 295 296 293 290 290 290 290 290 290 289 291 295 298 297 294 292 292 291 291 292 291 290 289 289 289 290 291 291 291 291 290 288 287 287 286 285 285 286 285 285 284 284 283 282 282 281 281 280 280 279 279 279 279 278 278 278 278 277 277 277
293 293 292 291 291 291 291 292 292 292 292 291 292 292 291 290 289 287 286 285 284 283 284 285 284 283 284 285 286 287 287 286 285 285 286 288 290 294 297 295 292 289 288 286 286 286 287 286 287 288 289 291 292 293 292 292 291 290 288 287 287 286 286 286 286 285 285 284 283 283 282 281 281 280 279 278 278 278 278 277 277 277 277 276 276 276
291 289 287 287 287 287 287 286 287 287 287 287 288 288 287 286 285 283 280 279 277 274 274 275 275 276 279 280 282 284 285 284 283 283 285 287 289 291 294 292 289 286 284 282 282 283 284 285 287 289 291 292 294 294 294 293 292 291 289 288 287 286 286 286 286 286 285 285 284 283 283 282 281 280 279 278 278 277 277 276 276 276 275 275 274 274
289 286 285 285 283 282 283 283 284 284 284 285 284 282 281 282 281 278 277 276 274 271 269 269 269 270 274 276 278 280 282 281 280 282 284 285 285 286 290 290 287 284 282 282 283 283 284 284 286 288 290 292 293 294 294 293 291 290 288 286 285 285 285 285 286 286 285 285 284 283 283 282 281 280 280 279 278 277 277 276 276 275 275 274 274 274
288 286 287 285 281 278 279 281 282 283 283 282 279 276 275 276 276 276 276 276 275 273 270 269 270 272 273 275 277 279 280 276 275 276 281 282 282 285 291 293 289 285 283 284 285 285 284 283 284 286 288 290 291 292 292 291 289 288 286 284 284 283 284 285 285 285 285 284 284 283 282 282 281 280 279 279 278 278 278 277 277 276 275 275 275 275
299 296 296 293 289 285 284 284 285 285 284 281 276 273 272 271 274 277 279 280 280 278 278 277 278 278 277 277 278 279 277 273 270 271 275 278 284 289 295 295 292 287 284 285 286 286 284 282 282 284 286 287 288 288 288 288 287 286 284 283 282 282 283 284 284 284 283 283 283 282 282 281 281 280 280 279 279 279 279 278 278 278 277 276 276 275
309 306 305 303 301 298 296 293 293 293 292 289 285 283 282 282 283 284 284 285 284 282 282 283 282 280 279 278 278 277 275 273 272 271 271 276 283 288 292 293 290 287 285 286 286 285 282 280 280 282 283 285 285 285 285 285 285 284 282 281 281 281 282 283 283 283 283 282 282 281 281 281 280 280 279 279 279 279 279 279 279 278 277 277 276 275
308 307 306 305 305 303 302 301 302 302 302 302 302 303 303 302 299 296 294 291 288 285 284 281 278 278 278 277 274 273 273 275 275 273 271 276 281 284 287 290 288 286 286 287 286 283 280 278 278 279 280 281 282 283 283 283 283 282 281 280 279 280 281 283 283 283 283 282 282 281 281 280 280 280 279 279 280 280 280 280 279 278 276 275 274 273
307 306 305 304 304 303 302 302 302 303 303 304 306 308 309 309 308 305 300 295 292 289 284 277 275 279 285 287 283 279 281 282 279 276 276 281 284 286 289 292 291 288 287 288 285 280 276 274 274 275 276 277 279 280 281 282 282 282 281 280 280 280 281 282 283 283 283 282 282 281 280 280 280 280 280 281 282 282 282 281 279 277 274 273 272 273
309 308 306 306 306 305 305 304 303 302 302 302 303 304 307 309 309 306 300 299 301 300 293 288 289 294 295 292 288 287 288 287 284 283 286 289 289 288 290 293 291 288 286 286 283 279 275 274 274 274 274 275 277 278 279 280 280 280 280 280 280 281 281 282 282 282 282 282 281 280 279 279 280 280 281 283 283 284 283 281 279 277 273 272 275 277
309 309 307 307 307 306 305 304 303 302 302 301 301 302 305 307 306 301 297 302 306 304 296 293 293 294 292 288 287 288 289 287 287 289 291 289 285 284 288 292 289 284 285 288 290 288 284 282 282 281 280 279 278 278 278 278 278 278 278 278 279 280 281 281 281 281 280 279 278 278 278 278 279 281 282 283 283 283 282 281 279 276 273 275 278 281
309 308 306 306 306 305 304 303 302 301 301 300 300 301 301 301 298 296 296 302 304 300 294 291 290 289 288 288 288 288 286 285 287 290 290 284 279 280 289 293 289 287 293 302 304 300 293 290 289 288 284 283 281 279 278 277 276 276 277 278 279 280 281 281 281 280 278 276 275 274 275 277 280 281 283 283 282 281 279 278 276 274 273 276 280 283
312 311 310 309 308 307 305 303 302 301 301 300 300 299 298 295 292 291 292 295 295 292 289 289 287 285 284 286 287 286 284 285 288 291 289 281 278 282 291 292 290 291 301 308 306 297 291 290 289 287 284 283 281 279 279 279 279 278 279 280 281 282 282 282 281 280 278 276 274 273 274 277 280 282 282 282 280 278 276 274 272 272 274 277 281 283
317 316 314 312 310 309 307 305 304 303 302 302 301 299 297 295 292 291 291 291 289 286 284 283 282 281 280 281 282 282 283 287 289 290 287 281 279 283 290 291 290 292 299 302 303 293 292 291 289 287 285 284 283 282 282 282 282 282 282 283 283 282 282 281 281 280 277 275 274 273 274 277 279 281 281 280 277 274 272 269 268 269 273 278 281 282
317 316 314 312 312 311 310 308 307 306 305 304 303 301 299 297 295 294 294 294 293 291 289 288 289 289 288 285 281 278 280 285 287 287 287 287 287 290 295 296 295 296 299 295 288 285 291 294 292 290 288 286 285 285 283 282 281 281 281 281 281 281 280 280 279 278 276 274 274 274 275 277 278 279 279 277 274 270 268 266 265 267 272 276 279 280
317 316 314 314 314 314 314 313 311 310 309 307 305 304 302 299 297 295 294 294 293 293 293 295 295 292 286 281 277 277 280 286 292 298 303 307 306 305 304 300 297 297 298 293 285 281 282 286 290 291 288 286 285 284 282 280 279 279 279 278 277 277 278 278 277 275 274 274 274 275 276 277 278 278 277 275 271 268 265 263 263 265 269 272 275 277
318 317 316 316 316 316 317 316 314 312 310 308 307 305 304 302 300 298 296 294 293 292 292 290 287 285 285 286 287 289 293 299 304 309 310 309 305 301 299 295 293 293 294 290 285 282 281 282 285 288 287 286 284 282 280 279 278 278 278 276 275 275 276 276 274 273 273 273 274 275 276 277 278 278 276 274 270 266 264 262 262 263 266 268 271 273
318 316 315 315 315 315 315 314 313 311 309 307 306 305 304 303 302 300 298 297 295 293 292 289 287 289 296 301 301 299 296 295 296 297 298 296 294 292 291 287 286 287 288 286 284 283 282 282 282 284 286 286 285 283 281 280 279 279 278 277 276 275 275 274 273 272 273 273 274 274 275 276 277 276 275 273 270 266 264 263 263 264 265 267 268 269
315 314 313 313 313 312 311 310 309 307 305 304 303 302 301 301 299 298 297 297 296 295 294 293 293 294 295 293 289 287 287 288 289 289 287 286 284 284 283 281 281 282 282 282 281 281 281 282 282 282 283 283 284 283 282 281 280 279 278 277 276 275 275 274 274 274 275 275 274 274 275 275 274 273 272 271 269 267 265 264 264 265 266 267 267 266
312 311 311 311 310 309 308 306 304 303 302 302 302 302 301 300 299 299 298 298 298 298 298 297 297 296 295 291 287 284 284 285 286 286 285 283 281 279 278 278 278 278 277 278 278 279 279 280 281 281 279 278 279 281 282 282 281 280 278 277 276 276 276 276 277 277 278 277 277 276 275 274 273 272 271 270 269 267 267 266 266 266 266 266 265 264
310 309 309 310 309 307 305 303 303 304 305 306 306 307 306 306 305 305 304 302 301 300 299 298 297 295 293 292 290 288 287 287 287 287 286 284 281 278 275 276 276 274 272 272 273 275 275 276 278 278 278 277 277 278 280 282 282 280 279 278 277 276 276 277 278 278 278 277 277 276 275 274 272 271 271 270 269 269 269 268 268 268 267 267 265 264
309 309 309 309 309 308 307 307 308 310 312 312 313 312 312 310 309 307 305 303 301 299 298 296 295 293 292 291 290 290 289 289 288 288 288 286 283 279 274 273 272 271 270 269 268 268 269 269 269 271 275 277 278 278 279 279 279 279 279 279 278 276 275 275 276 275 275 274 274 274 273 273 272 271 270 270 270 269 269 269 269 268 267 266 265 265
309 308 308 309 310 310 310 310 311 312 312 312 311 310 309 308 306 304 302 301 300 298 297 296 295 293 292 291 290 289 288 288 288 288 287 286 283 279 273 269 268 269 269 267 265 264 263 264 265 267 270 273 276 278 278 277 276 276 278 278 278 276 275 275 274 273 272 272 271 270 270 271 271 270 270 270 269 268 268 268 267 266 265 263 262 263
310 309 309 309 309 309 308 306 306 306 306 306 305 305 304 304 304 303 302 301 300 299 298 298 296 294 293 291 289 288 287 287 287 286 284 283 281 277 273 269 268 268 269 269 267 264 262 263 265 267 269 271 273 275 275 275 275 275 275 275 275 276 277 276 274 272 270 269 268 268 269 269 269 269 269 269 268 267 267 266 265 265 264 262 260 259
309 308 307 307 306 305 304 303 302 302 302 301 301 300 301 301 301 301 300 300 299 299 299 299 298 296 294 292 290 289 288 287 287 286 285 284 283 282 281 279 277 276 275 273 271 269 266 265 266 268 269 270 272 274 274 274 274 274 273 272 274 276 277 275 272 269 267 267 266 266 267 267 267 267 268 268 268 268 267 266 265 264 263 262 260 258
306 304 304 303 303 302 302 302 302 302 302 301 300 299 300 300 299 298 297 297 298 298 298 298 298 297 296 294 293 292 291 289 288 286 285 285 286 287 287 286 283 280 276 273 271 271 270 268 267 267 269 270 271 272 274 274 274 273 271 270 270 271 273 272 271 270 267 266 265 265 266 266 267 267 267 267 268 268 267 266 265 263 261 258 257 257
303 302 302 302 302 303 303 302 302 302 302 301 300 300 301 300 299 297 295 295 296 297 298 298 298 296 294 293 294 295 295 294 292 290 287 286 285 285 284 284 282 279 275 271 269 271 273 272 271 270 271 271 271 271 272 273 274 273 272 269 265 262 262 266 269 269 268 266 265 265 265 266 267 267 267 267 267 266 265 265 263 261 259 257 255 255
301 302 301 302 303 303 303 302 303 303 302 301 299 299 300 300 298 296 294 294 294 294 296 297 297 296 293 293 295 297 298 298 297 295 293 290 288 286 284 283 281 279 276 271 268 267 269 271 272 273 273 273 272 272 272 273 275 275 274 271 266 262 260 263 264 265 265 265 265 265 265 265 265 265 264 264 264 263 262 261 261 260 258 256 254 254
301 301 301 303 303 303 303 302 302 301 301 300 299 298 299 299 297 295 293 292 292 292 294 295 294 293 292 293 296 298 299 300 299 298 297 295 292 290 287 285 283 280 277 273 269 267 266 266 269 271 273 273 271 270 270 272 274 275 275 275 272 269 268 266 263 262 261 262 262 263 264 264 263 261 260 260 261 260 260 259 257 257 257 256 256 255
302 303 303 304 304 303 302 302 300 299 298 298 298 298 298 298 297 295 293 292 292 292 293 294 292 289 288 291 293 295 297 298 298 299 298 297 295 293 291 288 285 283 280 276 273 270 267 265 265 265 266 267 269 269 269 269 270 270 272 273 273 272 270 268 267 264 262 262 262 263 263 261 259 256 255 257 258 259 259 258 257 257 257 256 256 255
304 304 304 303 302 302 301 301 300 299 298 298 298 298 298 298 296 295 293 293 292 292 293 293 292 290 288 288 290 291 292 293 295 296 297 296 296 294 292 290 287 284 282 279 276 272 270 267 265 262 259 260 263 266 268 268 267 266 267 268 269 269 268 268 268 267 265 263 263 264 263 259 256 254 254 256 257 258 259 260 260 259 258 257 256 255
303 302 302 301 301 300 299 300 300 299 298 298 298 298 298 297 296 294 293 292 292 291 291 290 290 289 289 289 289 290 291 291 291 292 293 294 294 294 292 291 289 287 284 282 279 276 273 271 267 262 258 254 255 259 263 265 266 265 265 265 265 265 266 267 267 267 265 264 264 264 263 259 256 254 254 256 258 260 262 263 263 262 260 258 256 255
302 302 301 300 299 299 298 299 299 299 298 298 298 298 298 298 297 295 293 292 291 290 288 287 287 287 287 288 289 290 290 290 290 290 291 292 292 292 291 292 291 290 288 286 283 280 278 276 272 267 261 254 251 251 255 260 263 263 263 262 262 262 263 264 266 266 265 264 264 264 263 261 259 256 255 255 258 261 263 264 264 263 262 259 257 255
302 302 301 300 298 298 298 298 298 297 297 297 297 297 298 298 298 297 295 293 291 290 288 287 285 284 285 287 288 289 289 289 288 288 290 291 292 291 290 290 290 290 290 289 288 286 286 285 281 277 272 263 253 247 246 251 256 260 261 261 261 260 261 263 264 264 264 263 263 263 263 261 259 257 255 254 256 260 262 262 262 262 262 260 258 257
Height
755 754 753 753 752 751 750 750 750 749 748 748 748 748 747 747 747 746 746 746 745 745 744 744 744 743 743 743 743 743 743 743 743 742 742 743 744 746 746 746 746 745 744 743 742 742 741 741 741 740 740 740 740 740 740 740 739 738 737 736 736 735 734 734 734 734 734 734 734 734 734 733 733 732 731 731 731 731 730 730 730 729 729 729 728 728
754 754 753 753 752 751 750 750 749 749 748 747 747 746 746 746 746 745 745 745 745 744 744 744 743 743 743 742 742 742 742 742 742 742 743 744 744 745 746 745 745 744 744 743 741 741 740 739 739 738 738 738 738 738 738 738 737 736 735 734 734 733 732 732 732 732 732 732 732 732 732 731 731 730 730 729 729 729 729 729 728 728 728 727 727 727
754 753 753 752 752 751 750 749 749 749 748 747 746 746 745 745 744 744 744 744 744 743 743 743 743 742 742 741 741 741 741 741 742 742 743 744 744 745 744 744 744 743 742 741 740 739 738 738 737 736 736 736 737 737 736 736 736 734 733 732 731 731 730 730 730 730 730 730 730 730 730 729 729 728 728 728 728 727 727 727 727 726 726 726 726 725
755 754 753 752 752 751 750 750 749 749 748 747 746 746 745 744 744 743 743 743 742 742 742 742 742 741 741 741 740 740 741 741 741 742 742 743 743 743 743 743 742 742 741 740 739 738 737 736 735 735 735 735 735 735 735 734 734 732 731 730 729 729 728 728 728 728 728 728 728 728 728 727 727 726 726 726 726 726 726 726 725 725 725 724 724 724
755 754 753 752 751 751 750 750 749 748 748 747 746 746 745 745 744 744 743 743 743 742 742 741 741 741 741 740 740 740 740 741 741 741 741 741 741 741 740 741 740 740 739 738 737 736 735 735 734 734 733 733 733 733 733 732 731 730 729 728 727 727 726 726 726 726 726 726 726 726 726 725 725 724 724 724 724 724 724 724 724 724 723 723 723 723
754 754 753 753 752 751 750 750 749 748 747 747 746 746 745 745 744 744 743 743 743 742 742 742 741 741 741 740 740 740 740 740 740 739 739 739 739 738 738 738 737 737 737 736 735 734 734 733 733 733 732 732 732 731 731 730 729 728 727 726 725 725 725 725 725 725 724 724 724 724 724 723 723 723 722 722 722 722 722 722 722 722 722 722 721 721
754 754 753 752 751 751 750 749 749 749 748 746 746 745 744 744 744 743 743 742 742 741 741 740 740 740 739 739 739 738 738 738 737 737 737 737 736 736 736 735 735 734 734 733 733 732 732 732 731 731 731 731 730 730 729 728 727 726 725 724 724 723 723 723 723 723 723 722 722 722 721 721 721 721 721 720 720 720 721 720 720 720 720 720 720 720
754 753 753 752 751 750 750 749 749 748 748 747 746 744 744 743 743 742 742 741 741 740 740 739 738 738 738 737 737 737 736 736 735 735 735 734 734 734 733 732 732 732 731 731 731 730 730 730 730 730 729 729 729 728 727 726 725 724 723 722 722 722 721 721 721 721 721 721 720 720 720 719 719 719 719 719 718 719 719 718 719 719 719 719 719 718
754 753 752 752 751 750 749 748 748 748 748 747 746 745 744 742 741 741 741 740 740 740 739 738 736 736 736 736 736 735 735 734 734 733 733 732 732 731 731 730 730 729 729 729 729 729 729 728 728 728 727 727 726 726 724 724 723 722 721 721 720 720 720 720 719 719 719 719 719 718 718 718 717 717 717 717 716 716 716 716 716 717 717 717 717 716
754 753 752 751 751 751 750 748 748 748 748 747 746 746 745 743 741 740 739 739 739 739 738 737 736 735 734 734 734 734 733 732 732 732 731 731 730 730 729 729 728 728 727 727 727 727 727 726 726 726 725 725 724 723 722 721 720 720 719 719 719 718 718 718 718 717 717 717 717 716 716 716 716 715 715 715 715 714 714 714 714 714 714 714 714 714
754 753 752 751 751 750 750 749 748 747 747 746 745 745 744 744 742 741 739 738 737 737 737 737 736 735 734 733 732 732 732 731 730 729 729 729 728 728 727 727 726 726 726 725 725 725 725 724 724 723 723 722 721 721 720 719 718 718 717 717 717 716 716 716 716 715 715 715 715 714 714 714 714 713 713 713 713 713 712 712 712 712 712 712 712 712
753 753 752 751 750 749 749 748 748 747 746 746 744 743 743 743 743 742 740 738 737 736 736 735 735 735 734 733 731 731 730 729 728 727 727 726 726 726 725 725 724 724 724 724 723 723 723 722 722 721 720 720 719 718 717 717 716 716 715 715 715 714 714 714 714 713 713 713 712 712 712 712 711 711 711 711 711 711 710 710 710 710 710 710 710 710
753 752 751 751 750 749 748 748 747 746 746 745 745 744 742 742 742 741 740 738 737 736 736 734 733 733 733 732 731 730 729 728 727 726 725 725 724 724 724 723 722 722 722 721 721 721 720 720 719 719 718 717 716 716 715 714 714 714 713 713 713 712 712 712 711 711 711 711 710 710 710 709 709 709 709 709 708 708 708 708 708 708 708 708 708 708
752 752 751 750 749 749 748 747 746 746 745 745 744 743 742 741 741 741 739 738 736 736 736 734 732 731 731 731 730 729 728 727 726 725 724 724 723 723 723 721 721 720 720 719 718 718 718 718 717 716 716 715 714 714 713 712 712 711 711 711 710 710 710 709 709 709 709 708 708 708 707 707 707 707 706 706 706 706 706 706 706 706 706 706 706 706
752 751 750 749 748 748 747 747 746 745 744 744 743 743 742 741 740 740 739 737 736 735 735 733 731 730 729 729 729 728 727 726 725 724 723 722 722 722 721 720 719 718 718 717 716 715 716 715 714 713 713 712 712 711 711 710 710 709 709 709 708 708 707 707 707 706 706 706 705 705 705 705 704 704 704 704 704 704 703 703 703 703 703 703 703 703
751 751 750 749 747 747 746 746 745 744 743 743 742 742 741 740 739 739 738 737 735 734 734 732 730 729 727 727 728 728 727 725 724 723 722 720 720 721 721 719 717 716 716 715 714 713 713 713 712 711 710 710 709 709 709 708 708 707 707 706 706 706 705 705 704 704 704 703 703 703 702 702 702 702 702 701 701 701 701 701 701 701 701 701 701 701
751 750 749 748 747 746 745 745 745 744 743 742 741 741 740 739 739 738 737 736 735 734 733 732 731 729 726 725 726 726 726 725 723 722 721 719 718 719 719 718 716 715 714 713 712 711 711 710 709 709 708 708 707 707 706 706 706 705 705 704 704 703 703 702 702 702 701 701 701 700 700 700 700 700 699 699 699 699 699 699 699 699 699 699 699 699
750 749 749 748 746 745 745 744 744 743 742 741 741 740 739 739 738 737 737 736 735 734 732 732 731 729 727 725 724 724 725 724 722 721 720 718 717 717 718 717 715 714 712 711 711 710 710 709 708 707 706 705 705 705 704 704 703 703 702 702 701 701 701 700 700 700 699 699 699 698 698 698 698 698 697 697 697 697 697 696 696 696 696 696 696 696
749 749 748 747 746 745 744 744 743 742 741 741 740 739 738 737 737 736 735 735 734 733 732 730 729 728 727 724 723 723 724 723 721 719 718 716 715 715 716 715 714 712 711 710 709 709 708 707 706 705 704 703 703 702 702 701 701 700 700 700 699 699 699 698 698 698 697 697 697 696 696 696 696 696 695 695 695 695 695 694 694 694 694 694 694 694
748 747 747 746 745 744 743 742 742 741 741 739 739 738 737 736 735 735 734 733 732 731 730 729 727 725 724 723 721 721 722 722 720 718 716 715 713 713 714 714 712 710 709 708 707 707 706 705 704 703 702 701 701 700 699 699 699 698 698 698 697 697 697 696 696 696 695 695 695 694 694 694 694 694 693 693 693 693 692 692 692 692 692 692 692 692
746 746 745 745 744 743 741 741 740 740 739 738 737 736 735 734 733 732 731 731 729 728 727 726 724 723 722 720 719 719 720 720 719 717 715 713 711 711 712 712 710 708 707 705 705 705 704 703 702 701 700 699 699 698 697 697 696 696 696 696 695 695 695 694 694 694 694 693 693 693 692 692 692 691 691 691 691 691 690 690 690 690 690 690 689 689
745 744 743 743 743 741 740 739 739 738 737 737 736 735 734 732 731 730 729 729 728 726 725 724 722 720 719 718 716 716 718 718 717 715 714 711 709 708 710 710 708 706 704 703 703 703 702 701 700 699 698 697 697 696 696 695 695 694 694 694 694 693 693 693 692 692 691 691 691 691 690 690 689 689 689 689 689 689 688 688 688 688 687 687 687 687
744 743 742 741 741 740 739 738 737 736 736 735 734 732 731 730 729 728 727 727 726 724 723 721 720 718 717 716 715 715 715 716 715 714 713 710 707 706 708 708 706 704 702 702 701 700 699 699 698 697 696 695 695 694 694 693 693 692 692 692 692 691 691 691 690 690 690 689 689 689 688 688 688 687 687 687 687 686 686 686 686 685 685 685 684 684
744 742 741 741 740 739 738 736 735 734 734 733 732 730 729 729 728 726 726 725 724 723 721 720 719 717 716 715 714 713 713 714 714 713 712 709 706 705 706 706 704 702 700 700 700 699 697 696 695 694 694 693 692 692 691 691 691 690 690 690 690 689 689 689 688 688 688 687 687 686 686 686 686 685 685 685 685 684 684 684 683 683 683 682 682 682
743 742 741 740 739 739 738 736 735 734 734 733 731 730 729 728 727 725 724 723 722 721 720 719 717 716 714 714 713 712 712 712 713 712 711 708 706 704 704 704 703 701 698 698 698 698 695 694 693 692 692 691 690 690 690 689 689 688 688 688 688 687 687 687 686 686 686 685 685 685 684 684 684 684 683 683 683 682 682 682 681 681 681 680 680 680
742 741 740 739 739 738 737 736 735 734 734 733 731 730 729 728 726 725 723 722 721 721 719 718 716 714 713 713 712 711 711 711 711 711 710 707 704 702 701 702 702 700 696 696 696 696 694 691 691 690 690 689 689 688 688 687 687 686 686 686 686 685 685 685 684 684 684 683 683 683 682 682 682 682 681 681 681 680 680 679 679 679 679 678 678 677
740 739 739 738 737 736 735 734 734 733 732 731 731 730 728 727 725 724 722 722 721 720 719 717 715 713 713 712 711 710 710 710 710 709 709 707 704 700 699 700 700 698 695 694 693 693 692 690 689 689 689 688 687 687 686 686 685 685 684 684 684 683 683 683 682 682 682 681 681 681 681 680 680 680 679 679 679 678 678 677 677 677 676 676 676 675
739 738 737 736 736 735 734 733 732 731 731 730 729 729 728 727 725 723 721 721 721 720 718 716 715 713 711 710 709 708 708 708 707 707 707 706 702 698 697 699 698 696 694 692 691 691 690 689 687 687 686 686 685 685 684 684 684 683 683 682 682 681 681 681 680 680 680 679 679 679 679 679 678 678 677 677 677 676 676 675 675 675 674 674 673 672
737 736 735 735 734 733 732 731 730 730 729 728 728 728 727 726 725 723 721 721 720 719 717 716 715 713 711 709 707 706 706 705 705 706 706 704 700 697 697 698 696 695 694 692 690 688 688 687 686 685 684 684 683 683 682 682 682 681 681 680 680 680 679 679 679 678 678 678 677 677 677 676 676 676 675 675 674 674 674 673 673 673 672 672 671 670
735 734 733 732 732 731 730 729 728 727 727 726 726 726 725 725 724 722 721 720 720 719 716 715 714 713 711 709 706 704 702 703 704 704 704 702 698 696 697 696 695 694 694 693 690 686 684 684 685 684 683 682 681 681 680 680 680 679 679 679 678 678 678 677 677 676 676 675 675 675 675 674 674 674 673 673 672 672 672 671 671 671 670 669 669 668
733 732 731 730 729 729 728 727 726 725 725 724 724 723 723 722 721 721 720 719 718 717 715 713 712 711 709 708 705 702 699 700 702 703 702 700 697 696 696 696 694 693 694 694 691 687 682 681 682 683 682 680 680 679 679 679 678 678 677 677 676 676 675 675 674 674 673 673 673 673 672 672 672 671 671 671 670 670 670 670 670 669 669 668 667 666
732 731 730 729 728 727 726 725 724 723 723 722 722 721 721 720 720 719 718 718 717 716 714 712 710 709 708 707 705 702 699 700 701 702 701 699 697 696 696 695 693 692 692 693 693 689 684 680 680 681 680 679 678 678 678 677 677 676 676 675 674 673 672 673 672 671 671 671 671 670 670 670 669 669 669 669 668 668 668 668 668 667 667 666 665 664
732 730 729 728 726 725 724 724 723 722 721 721 720 719 719 719 718 718 717 716 716 715 713 712 710 709 707 706 704 701 700 700 700 700 700 699 697 696 695 695 693 691 691 691 691 689 686 682 679 679 678 677 676 676 675 675 674 674 673 673 671 670 670 670 669 669 668 668 668 668 667 667 667 666 666 666 666 666 666 666 666 665 665 664 664 663
731 729 728 727 726 724 723 722 722 721 720 719 719 718 717 717 716 716 715 714 714 713 712 711 710 708 706 704 702 700 699 699 699 699 699 699 697 696 694 694 692 691 690 689 689 687 685 682 680 679 676 675 674 673 673 672 671 671 671 670 669 667 667 667 667 666 665 665 665 665 664 664 664 664 664 664 664 663 663 663 663 663 663 662 662 661
730 728 727 726 725 724 722 721 721 720 719 718 718 717 716 715 715 714 713 713 712 711 711 710 709 707 705 704 702 701 699 698 699 699 699 698 697 695 694 692 691 691 689 688 687 686 684 681 679 678 676 673 671 670 670 670 669 668 668 667 666 665 664 664 664 663 662 662 662 661 661 661 661 661 660 660 660 660 660 660 660 660 660 660 660 659
729 728 726 725 724 723 722 721 720 719 718 717 716 715 715 714 713 713 712 711 710 709 709 707 706 705 704 704 702 700 698 697 697 697 697 697 696 695 693 690 689 689 689 686 685 684 683 679 677 676 675 672 669 667 666 667 667 666 665 664 664 663 662 662 662 661 660 660 659 659 658 658 658 657 657 657 657 657 657 657 657 657 657 657 657 657
728 727 726 725 724 723 721 720 719 718 717 716 715 714 713 713 712 711 710 709 708 707 706 705 704 703 702 701 700 698 696 695 695 695 695 695 694 693 691 689 688 688 687 685 683 682 681 679 676 674 673 671 668 665 664 664 664 663 662 662 662 661 660 659 659 659 659 657 656 656 656 655 655 654 654 654 654 654 654 654 654 654 654 654 654 654
728 726 725 724 723 722 721 719 718 717 716 715 714 713 712 711 710 709 708 707 706 705 704 703 702 701 699 698 697 696 694 694 693 693 692 692 692 691 690 687 686 686 685 684 683 681 680 678 675 672 670 668 666 664 663 663 662 661 660 660 660 659 658 657 657 657 656 655 654 653 653 652 652 651 651 651 651 651 651 650 650 650 651 650 650 650
727 725 724 723 722 721 720 719 718 716 716 714 713 712 711 710 709 708 707 706 705 704 703 701 700 698 697 696 694 693 692 691 691 690 690 689 689 689 687 686 684 683 682 682 681 680 679 677 674 671 669 666 664 663 662 661 661 659 658 658 657 656 656 655 655 654 654 653 651 651 650 649 649 649 648 648 648 648 647 647 646 647 647 647 646 646
726 725 724 722 721 721 720 718 717 716 715 714 713 711 710 709 708 706 705 704 703 702 701 699 698 696 695 693 692 691 690 689 688 688 687 687 686 685 684 683 681 680 680 679 679 678 676 674 672 670 668 666 664 661 660 659 658 658 658 656 654 652 652 653 652 652 651 650 649 648 647 646 646 646 645 645 645 645 644 644 643 643 644 644 643 642
726 724 723 722 721 720 719 718 717 715 714 713 711 710 709 708 707 705 704 702 701 700 699 698 696 694 692 691 690 689 688 687 686 686 685 684 683 682 681 680 679 679 678 677 676 675 674 672 670 668 666 665 662 660 658 657 656 656 656 654 652 650 649 650 649 649 648 647 646 646 645 644 644 643 642 642 642 641 641 641 640 640 640 640 640 640
725 724 723 721 720 719 718 717 716 714 713 712 711 709 708 707 706 704 703 701 699 698 697 696 695 693 690 688 687 686 686 685 684 684 683 682 681 680 680 679 678 677 677 675 674 673 671 670 668 666 665 663 661 659 656 654 654 654 654 652 651 649 647 646 646 646 646 645 644 643 643 642 641 640 640 639 638 638 638 638 637 637 637 637 637 636
725 723 722 721 719 718 717 715 714 713 712 710 709 708 707 706 705 704 702 700 699 697 696 695 694 692 690 687 685 684 684 683 683 682 681 680 679 679 678 677 676 676 675 674 672 670 669 668 666 665 663 662 660 658 655 652 651 651 651 650 650 648 646 643 642 643 643 642 641 641 640 639 639 638 637 636 636 635 635 635 634 634 634 634 634 633
724 722 721 720 718 717 716 714 713 712 711 709 708 707 706 705 704 703 701 700 698 696 695 694 693 691 689 686 684 682 681 680 680 680 679 678 678 677 676 675 674 673 673 672 670 668 666 665 664 662 661 660 659 656 653 651 649 648 647 647 647 646 643 640 640 640 640 639 638 638 637 637 636 636 635 634 633 633 632 632 631 631 631 631 630 630
723 721 720 719 717 716 715 713 712 711 709 708 707 706 704 704 703 702 700 699 697 696 694 694 692 690 688 685 683 681 680 678 678 677 677 676 675 675 674 673 672 671 670 669 668 667 665 663 661 660 659 658 657 654 652 649 647 646 645 644 643 642 640 638 637 637 637 636 635 635 634 634 634 634 632 631 630 629 629 629 628 628 627 627 627 627
722 720 719 718 716 715 714 712 711 710 708 707 706 704 703 702 701 700 699 698 696 695 693 693 691 690 687 684 683 681 679 677 676 675 674 674 673 673 672 671 670 669 668 666 665 664 663 661 660 658 657 656 654 651 650 648 646 644 642 641 641 639 637 636 635 634 634 633 632 631 631 632 632 631 629 628 627 626 625 625 625 625 624 624 624 624
721 719 718 716 715 714 712 711 710 709 707 706 704 703 702 701 700 699 697 696 695 694 692 691 690 689 686 684 683 681 679 677 674 673 672 672 671 670 670 669 668 667 665 664 663 661 660 659 658 656 655 653 651 648 646 645 644 643 641 639 638 637 635 633 632 631 631 630 629 628 629 629 629 627 626 625 624 623 622 622 622 621 621 621 621 621
720 719 717 716 714 713 711 710 709 707 706 704 703 701 701 700 699 697 696 695 694 693 691 690 689 687 685 683 682 681 679 677 674 672 671 670 669 668 667 666 665 664 663 661 660 658 657 655 654 654 653 651 649 646 644 642 642 640 639 637 636 634 632 630 629 629 628 627 626 626 626 626 626 624 623 622 621 620 619 618 618 618 618 618 618 618
719 718 716 715 713 712 710 709 708 706 705 703 701 700 699 698 697 696 695 694 693 691 690 689 687 686 684 682 680 679 678 676 674 672 670 669 667 666 665 664 663 661 660 658 656 655 653 651 650 649 648 648 646 644 641 640 638 637 636 635 633 632 630 628 627 626 626 625 624 624 624 623 623 622 621 620 618 617 616 615 615 615 615 615 615 614
718 717 715 714 712 711 709 708 706 705 704 702 700 699 697 696 695 695 694 693 691 690 689 688 686 684 682 680 679 678 676 675 673 670 669 667 666 665 663 662 661 659 657 655 654 652 650 648 645 644 643 643 642 641 639 637 635 634 633 632 630 629 628 626 624 624 623 623 622 621 621 621 620 620 619 618 616 615 613 613 612 611 611 611 611 611
717 715 714 713 711 710 708 707 705 704 702 701 699 698 696 695 694 693 692 691 690 689 687 686 685 683 681 679 677 676 675 673 671 669 667 666 665 664 662 661 659 658 656 654 652 650 648 646 642 640 638 638 638 638 636 635 633 631 630 628 627 626 625 624 622 621 621 620 620 619 619 618 618 617 617 616 615 613 611 610 609 608 608 608 608 607